Location: Tenerife
(28.2947°N, 16.5650°W)
Time: 11:47:25
(UTC+00:00)

OTV 5 (USA 277) - Visible Passes

Search period start: 20 November 2017 00:00
Search period end: 30 November 2017 00:00
Orbit: 404 x 417 km, 43.0° (Epoch: 07 September)

Date Brightness Start Highest point End Pass type
(mag) Time Alt. Az. Time Alt. Az. Time Alt. Az.
20 Nov ? 06:54:50 10° NW 06:57:59 43° NNE 07:01:07 10° ESE visible
21 Nov ? 06:06:09 24° N 06:06:51 27° NNE 06:09:41 10° E visible
22 Nov ? 05:17:44 11° ENE 05:17:44 11° ENE 05:18:02 10° ENE visible
22 Nov ? 06:50:31 14° WNW 06:53:08 54° SW 06:56:20 10° SE visible
23 Nov ? 06:02:09 79° NE 06:02:09 79° NE 06:05:22 10° ESE visible
24 Nov ? 05:13:51 12° ESE 05:13:51 12° ESE 05:14:10 10° ESE visible
24 Nov ? 06:46:38 13° WSW 06:48:07 16° SW 06:50:12 10° S visible
25 Nov ? 05:58:24 22° S 05:58:24 22° S 06:00:01 10° SSE visible
27 Nov ? 19:13:56 10° SE 19:14:31 10° SE 19:14:38 10° SE visible
28 Nov ? 19:57:07 10° SW 19:59:09 33° SSW 19:59:09 33° SSW visible
29 Nov ? 19:06:23 10° SSW 19:09:26 33° SE 19:10:50 23° E visible
